Location: Kam�li
(14.6864°N, 3.1482°W)
Time: 01:50:58
(UTC+00:00)

Cosmos 1892 - Pass Details

Date: 29 October 2020
Orbit: 504 x 524 km, 82.5° (Epoch: 02 December)

Event Time Altitude Azimuth Distance (km) Brightness Sun altitude
Rises 18:37:21 0° 0° (N) 2,646 6.2 -13.2°
Reaches altitude 10° 18:39:31 10° 4° (N) 1,757 5.2 -13.7°
Maximum altitude 18:43:20 62° 85° (E) 589 2.6 -14.6°
Drops below altitude 10° 18:47:07 10° 167° (SSE) 1,748 5.3 -15.5°
Sets 18:49:16 0° 170° (S) 2,632 6.3 -16.0°
